Time,TemperatureF,DewpointF,PressureIn,WindDirection,WindDirectionDegrees,WindSpeedMPH,WindSpeedGustMPH,Humidity,HourlyPrecipIn,Conditions,Clouds,dailyrainin,SoftwareType,DateUTC
2013-02-20 00:00:00,34.7,25.6,30.12,East,98,3.0,6.0,69,0.00,CLR,CLR,0.00,WeatherDisplay:10.37,2013-02-20 00:00:00,
2013-02-20 00:05:00,35.1,26.3,30.12,East,92,5.0,6.0,70,0.00,CLR,CLR,0.00,WeatherDisplay:10.37,2013-02-20 00:05:00,
2013-02-20 00:15:00,35.4,26.5,30.12,East,98,2.0,6.0,70,0.00,CLR,CLR,0.00,WeatherDisplay:10.37,2013-02-20 00:15:00,
2013-02-20 00:20:00,35.5,26.7,30.12,East,82,3.0,6.0,70,0.00,CLR,CLR,0.00,WeatherDisplay:10.37,2013-02-20 00:20:00,
2013-02-20 00:25:00,35.7,27.3,30.12,ENE,74,3.0,6.0,71,0.00,CLR,CLR,0.00,WeatherDisplay:10.37,2013-02-20 00:25:00,
2013-02-20 00:30:00,35.8,27.3,30.12,ENE,75,3.0,6.0,71,0.00,CLR,CLR,0.00,WeatherDisplay:10.37,2013-02-20 00:30:00,
2013-02-20 00:40:00,35.8,27.3,30.15,ESE,103,5.0,6.0,71,0.00,CLR,CLR,0.00,WeatherDisplay:10.37,2013-02-20 00:40:00,
2013-02-20 00:50:00,35.6,27.1,30.15,East,90,3.0,6.0,71,0.00,CLR,CLR,0.00,WeatherDisplay:10.37,2013-02-20 00:50:00,
2013-02-20 01:00:00,35.6,27.1,30.15,East,87,5.0,9.0,71,0.00,CLR,CLR,0.00,WeatherDisplay:10.37,2013-02-20 01:00:00,
2013-02-20 01:05:00,35.6,27.1,30.15,East,83,3.0,5.0,71,0.00,CLR,CLR,0.00,WeatherDisplay:10.37,2013-02-20 01:05:00,
2013-02-20 01:10:00,35.4,27.3,30.15,East,95,5.0,6.0,72,0.00,CLR,CLR,0.00,WeatherDisplay:10.37,2013-02-20 01:10:00,
2013-02-20 01:20:00,35.4,27.3,30.15,ENE,73,3.0,6.0,72,0.00,CLR,CLR,0.00,WeatherDisplay:10.37,2013-02-20 01:20:00,
2013-02-20 01:30:00,35.6,27.5,30.15,East,100,3.0,6.0,72,0.00,CLR,CLR,0.00,WeatherDisplay:10.37,2013-02-20 01:30:00,
2013-02-20 01:40:00,35.7,27.6,30.15,East,88,3.0,6.0,72,0.00,CLR,CLR,0.00,WeatherDisplay:10.37,2013-02-20 01:40:00,
2013-02-20 01:45:00,35.8,27.6,30.15,East,100,1.0,5.0,72,0.00,CLR,CLR,0.00,WeatherDisplay:10.37,2013-02-20 01:45:00,
2013-02-20 01:50:00,35.6,27.5,30.15,ESE,113,0.0,2.0,72,0.00,CLR,CLR,0.00,WeatherDisplay:10.37,2013-02-20 01:50:00,
2013-02-20 01:55:00,35.6,27.4,30.15,ESE,117,0.0,0.0,72,0.00,CLR,CLR,0.00,WeatherDisplay:10.37,2013-02-20 01:55:00,
2013-02-20 02:00:00,35.4,27.2,30.15,ESE,117,0.0,0.0,72,0.00,CLR,CLR,0.00,WeatherDisplay:10.37,2013-02-20 02:00:00,
2013-02-20 02:05:00,35.2,27.0,30.15,ESE,117,0.0,0.0,72,0.00,CLR,CLR,0.00,WeatherDisplay:10.37,2013-02-20 02:05:00,
2013-02-20 02:10:00,35.1,26.9,30.15,ESE,118,0.0,0.0,72,0.00,CLR,CLR,0.00,WeatherDisplay:10.37,2013-02-20 02:10:00,
2013-02-20 02:20:00,35.1,26.9,30.15,ESE,117,0.0,0.0,72,0.00,CLR,CLR,0.00,WeatherDisplay:10.37,2013-02-20 02:20:00,
2013-02-20 02:30:00,35.8,28.3,30.15,ESE,106,3.0,6.0,74,0.00,CLR,CLR,0.00,WeatherDisplay:10.37,2013-02-20 02:30:00,
2013-02-20 02:40:00,37.0,29.8,30.15,East,94,3.0,6.0,75,0.00,CLR,CLR,0.00,WeatherDisplay:10.37,2013-02-20 02:40:00,
2013-02-20 02:45:00,37.4,29.9,30.15,East,93,5.0,6.0,74,0.00,CLR,CLR,0.00,WeatherDisplay:10.37,2013-02-20 02:45:00,
2013-02-20 02:50:00,37.6,30.0,30.15,East,96,5.0,7.0,74,0.00,CLR,CLR,0.00,WeatherDisplay:10.37,2013-02-20 02:50:00,
2013-02-20 02:55:00,37.8,30.2,30.15,East,99,5.0,6.0,74,0.00,CLR,CLR,0.00,WeatherDisplay:10.37,2013-02-20 02:55:00,
2013-02-20 03:00:00,37.9,30.4,30.15,East,92,3.0,6.0,74,0.00,CLR,CLR,0.00,WeatherDisplay:10.37,2013-02-20 03:00:00,
2013-02-20 03:05:00,37.9,30.4,30.15,East,93,3.0,6.0,74,0.00,CLR,CLR,0.00,WeatherDisplay:10.37,2013-02-20 03:05:00,
2013-02-20 03:10:00,37.9,30.4,30.15,East,95,6.0,6.0,74,0.00,CLR,CLR,0.00,WeatherDisplay:10.37,2013-02-20 03:10:00,
2013-02-20 03:15:00,38.1,30.6,30.15,East,90,3.0,4.0,74,0.00,CLR,CLR,0.00,WeatherDisplay:10.37,2013-02-20 03:15:00,
2013-02-20 03:25:00,38.1,30.6,30.15,ESE,102,6.0,6.0,74,0.00,CLR,CLR,0.00,WeatherDisplay:10.37,2013-02-20 03:25:00,
2013-02-20 03:30:00,38.1,30.6,30.15,ESE,117,6.0,6.0,74,0.00,CLR,CLR,0.00,WeatherDisplay:10.37,2013-02-20 03:30:00,
2013-02-20 03:40:00,38.1,30.9,30.15,ESE,118,6.0,6.0,75,0.00,CLR,CLR,0.00,WeatherDisplay:10.37,2013-02-20 03:40:00,
2013-02-20 03:45:00,38.1,30.9,30.15,ESE,118,6.0,6.0,75,0.00,CLR,CLR,0.00,WeatherDisplay:10.37,2013-02-20 03:45:00,
2013-02-20 03:50:00,38.1,30.9,30.15,ESE,118,6.0,6.0,75,0.00,CLR,CLR,0.00,WeatherDisplay:10.37,2013-02-20 03:50:00,
2013-02-20 04:00:00,38.3,31.1,30.15,ESE,117,2.0,6.0,75,0.00,CLR,CLR,0.00,WeatherDisplay:10.37,2013-02-20 04:00:00,
2013-02-20 04:10:00,38.3,31.1,30.18,East,90,3.0,6.0,75,0.00,CLR,CLR,0.00,WeatherDisplay:10.37,2013-02-20 04:10:00,
2013-02-20 04:15:00,38.3,31.1,30.18,East,93,0.0,4.0,75,0.00,CLR,CLR,0.00,WeatherDisplay:10.37,2013-02-20 04:15:00,
2013-02-20 04:20:00,38.5,31.2,30.18,ESE,112,0.0,4.0,75,0.00,CLR,CLR,0.00,WeatherDisplay:10.37,2013-02-20 04:20:00,
2013-02-20 04:30:00,38.5,31.2,30.18,East,88,3.0,5.0,75,0.00,CLR,CLR,0.00,WeatherDisplay:10.37,2013-02-20 04:30:00,
2013-02-20 04:40:00,38.5,31.2,30.18,ESE,105,0.0,2.0,75,0.00,CLR,CLR,0.00,WeatherDisplay:10.37,2013-02-20 04:40:00,
2013-02-20 04:45:00,38.6,31.3,30.18,ESE,106,0.0,2.0,75,0.00,CLR,CLR,0.00,WeatherDisplay:10.37,2013-02-20 04:45:00,
2013-02-20 04:50:00,38.7,31.4,30.18,ESE,106,0.0,2.0,75,0.00,CLR,CLR,0.00,WeatherDisplay:10.37,2013-02-20 04:50:00,
2013-02-20 04:55:00,38.7,31.4,30.18,ESE,106,0.0,2.0,75,0.00,CLR,CLR,0.00,WeatherDisplay:10.37,2013-02-20 04:55:00,
2013-02-20 05:00:00,38.7,31.4,30.18,ESE,106,0.0,2.0,75,0.00,CLR,CLR,0.00,WeatherDisplay:10.37,2013-02-20 05:00:00,
2013-02-20 05:05:00,38.7,31.4,30.18,ESE,106,0.0,2.0,75,0.00,CLR,CLR,0.00,WeatherDisplay:10.37,2013-02-20 05:05:00,
2013-02-20 05:10:00,38.7,31.4,30.18,ESE,106,0.0,2.0,75,0.00,CLR,CLR,0.00,WeatherDisplay:10.37,2013-02-20 05:10:00,
2013-02-20 05:15:00,38.7,31.4,30.18,ESE,106,0.0,2.0,75,0.00,CLR,CLR,0.00,WeatherDisplay:10.37,2013-02-20 05:15:00,
2013-02-20 05:20:00,38.7,31.4,30.18,East,86,1.0,6.0,75,0.00,CLR,CLR,0.00,WeatherDisplay:10.37,2013-02-20 05:20:00,
2013-02-20 05:30:00,38.8,31.6,30.18,SE,128,0.0,4.0,75,0.00,CLR,CLR,0.00,WeatherDisplay:10.37,2013-02-20 05:30:00,
2013-02-20 05:35:00,38.8,31.6,30.18,ESE,109,0.0,4.0,75,0.00,CLR,CLR,0.00,WeatherDisplay:10.37,2013-02-20 05:35:00,
2013-02-20 05:40:00,38.8,31.9,30.18,East,93,2.0,4.0,76,0.00,CLR,CLR,0.00,WeatherDisplay:10.37,2013-02-20 05:40:00,
2013-02-20 05:50:00,39.0,32.1,30.18,ESE,102,1.0,5.0,76,0.00,CLR,CLR,0.00,WeatherDisplay:10.37,2013-02-20 05:50:00,
2013-02-20 06:00:00,39.2,31.9,30.18,ESE,105,1.0,5.0,75,0.00,CLR,CLR,0.00,WeatherDisplay:10.37,2013-02-20 06:00:00,
2013-02-20 06:05:00,39.2,31.9,30.18,East,97,0.0,6.0,75,0.00,CLR,CLR,0.00,WeatherDisplay:10.37,2013-02-20 06:05:00,
2013-02-20 06:10:00,39.2,31.9,30.18,East,96,0.0,2.0,75,0.00,CLR,CLR,0.00,WeatherDisplay:10.37,2013-02-20 06:10:00,
2013-02-20 06:15:00,39.2,31.9,30.18,ESE,105,0.0,3.0,75,0.00,CLR,CLR,0.00,WeatherDisplay:10.37,2013-02-20 06:15:00,
2013-02-20 06:20:00,39.2,31.9,30.18,ESE,108,0.0,6.0,75,0.00,CLR,CLR,0.00,WeatherDisplay:10.37,2013-02-20 06:20:00,
2013-02-20 06:25:00,39.2,31.9,30.18,ESE,108,1.0,6.0,75,0.00,CLR,CLR,0.00,WeatherDisplay:10.37,2013-02-20 06:25:00,
2013-02-20 06:30:00,39.2,31.9,30.18,ESE,115,2.0,4.0,75,0.00,CLR,CLR,0.00,WeatherDisplay:10.37,2013-02-20 06:30:00,
2013-02-20 06:40:00,39.2,31.9,30.18,ESE,110,1.0,5.0,75,0.00,CLR,CLR,0.00,WeatherDisplay:10.37,2013-02-20 06:40:00,
2013-02-20 06:50:00,39.2,31.9,30.18,ESE,106,2.0,6.0,75,0.00,CLR,CLR,0.00,WeatherDisplay:10.37,2013-02-20 06:50:00,
2013-02-20 07:00:00,39.4,32.1,30.18,ESE,107,1.0,4.0,75,0.00,CLR,CLR,0.00,WeatherDisplay:10.37,2013-02-20 07:00:00,
2013-02-20 07:10:00,39.4,32.1,30.18,ESE,109,0.0,8.0,75,0.00,CLR,CLR,0.00,WeatherDisplay:10.37,2013-02-20 07:10:00,
2013-02-20 07:15:00,39.4,32.1,30.18,ESE,109,0.0,5.0,75,0.00,CLR,CLR,0.00,WeatherDisplay:10.37,2013-02-20 07:15:00,
2013-02-20 07:20:00,39.4,32.1,30.18,ESE,102,0.0,4.0,75,0.00,CLR,CLR,0.00,WeatherDisplay:10.37,2013-02-20 07:20:00,
2013-02-20 07:25:00,39.4,32.1,30.18,East,86,0.0,0.0,75,0.00,CLR,CLR,0.00,WeatherDisplay:10.37,2013-02-20 07:25:00,
2013-02-20 07:30:00,39.4,32.1,30.18,East,88,0.0,0.0,75,0.00,CLR,CLR,0.00,WeatherDisplay:10.37,2013-02-20 07:30:00,
2013-02-20 07:40:00,39.4,32.1,30.18,East,101,2.0,3.0,75,0.00,CLR,CLR,0.00,WeatherDisplay:10.37,2013-02-20 07:40:00,
2013-02-20 07:50:00,39.4,32.1,30.18,East,90,3.0,5.0,75,0.00,CLR,CLR,0.00,WeatherDisplay:10.37,2013-02-20 07:50:00,
2013-02-20 08:00:00,39.4,32.1,30.18,ESE,108,3.0,8.0,75,0.00,CLR,CLR,0.00,WeatherDisplay:10.37,2013-02-20 08:00:00,
2013-02-20 08:05:00,39.6,32.3,30.18,ESE,102,3.0,6.0,75,0.00,CLR,CLR,0.00,WeatherDisplay:10.37,2013-02-20 08:05:00,
2013-02-20 08:10:00,39.6,32.3,30.18,East,97,3.0,6.0,75,0.00,CLR,CLR,0.00,WeatherDisplay:10.37,2013-02-20 08:10:00,
2013-02-20 08:15:00,39.7,32.4,30.18,ESE,106,0.0,6.0,75,0.00,CLR,CLR,0.00,WeatherDisplay:10.37,2013-02-20 08:15:00,
2013-02-20 08:20:00,39.7,32.1,30.18,ESE,110,2.0,6.0,74,0.00,CLR,CLR,0.00,WeatherDisplay:10.37,2013-02-20 08:20:00,
2013-02-20 08:30:00,39.7,32.1,30.18,ESE,121,0.0,6.0,74,0.00,CLR,CLR,0.00,WeatherDisplay:10.37,2013-02-20 08:30:00,
2013-02-20 08:40:00,39.7,32.1,30.21,ESE,110,2.0,5.0,74,0.00,CLR,CLR,0.00,WeatherDisplay:10.37,2013-02-20 08:40:00,
2013-02-20 08:50:00,39.9,32.3,30.21,SE,128,1.0,4.0,74,0.00,CLR,CLR,0.00,WeatherDisplay:10.37,2013-02-20 08:50:00,
2013-02-20 09:00:00,39.9,32.0,30.21,ESE,115,2.0,4.0,73,0.00,CLR,CLR,0.00,WeatherDisplay:10.37,2013-02-20 09:00:00,
2013-02-20 09:05:00,40.1,32.1,30.21,ESE,115,0.0,6.0,73,0.00,CLR,CLR,0.00,WeatherDisplay:10.37,2013-02-20 09:05:00,
2013-02-20 09:10:00,40.1,32.1,30.21,ESE,108,3.0,6.0,73,0.00,CLR,CLR,0.00,WeatherDisplay:10.37,2013-02-20 09:10:00,
2013-02-20 09:20:00,40.3,32.3,30.21,ESE,104,3.0,6.0,73,0.00,CLR,CLR,0.00,WeatherDisplay:10.37,2013-02-20 09:20:00,
2013-02-20 09:25:00,40.5,32.1,30.21,ESE,105,6.0,6.0,72,0.00,CLR,CLR,0.00,WeatherDisplay:10.37,2013-02-20 09:25:00,
2013-02-20 09:30:00,40.5,32.1,30.21,ESE,111,3.0,6.0,72,0.00,CLR,CLR,0.00,WeatherDisplay:10.37,2013-02-20 09:30:00,
2013-02-20 09:40:00,40.5,31.8,30.21,ESE,105,3.0,6.0,71,0.00,CLR,CLR,0.00,WeatherDisplay:10.37,2013-02-20 09:40:00,
2013-02-20 09:50:00,40.6,32.0,30.21,SE,134,5.0,6.0,71,0.00,CLR,CLR,0.00,WeatherDisplay:10.37,2013-02-20 09:50:00,
2013-02-20 09:55:00,40.6,31.6,30.21,SE,131,2.0,5.0,70,0.00,CLR,CLR,0.00,WeatherDisplay:10.37,2013-02-20 09:55:00,
2013-02-20 10:00:00,40.6,31.3,30.21,SE,124,2.0,6.0,69,0.00,CLR,CLR,0.00,WeatherDisplay:10.37,2013-02-20 10:00:00,
2013-02-20 10:05:00,40.6,30.9,30.21,SE,143,3.0,8.0,68,0.00,CLR,CLR,0.00,WeatherDisplay:10.37,2013-02-20 10:05:00,
2013-02-20 10:10:00,40.6,30.2,30.21,SE,134,2.0,6.0,66,0.00,CLR,CLR,0.00,WeatherDisplay:10.37,2013-02-20 10:10:00,
2013-02-20 10:20:00,40.8,29.6,30.24,SE,142,3.0,8.0,64,0.00,CLR,CLR,0.00,WeatherDisplay:10.37,2013-02-20 10:20:00,
2013-02-20 10:25:00,40.8,29.2,30.24,SE,141,1.0,7.0,63,0.00,CLR,CLR,0.00,WeatherDisplay:10.37,2013-02-20 10:25:00,
2013-02-20 10:30:00,40.8,29.2,30.24,SE,145,0.0,5.0,63,0.00,CLR,CLR,0.00,WeatherDisplay:10.37,2013-02-20 10:30:00,
2013-02-20 10:40:00,40.8,28.8,30.24,SE,140,3.0,8.0,62,0.00,CLR,CLR,0.00,WeatherDisplay:10.37,2013-02-20 10:40:00,
2013-02-20 10:50:00,40.6,27.8,30.24,SE,141,3.0,8.0,60,0.00,CLR,CLR,0.00,WeatherDisplay:10.37,2013-02-20 10:50:00,
2013-02-20 11:00:00,40.6,27.0,30.24,SE,138,3.0,6.0,58,0.00,CLR,CLR,0.00,WeatherDisplay:10.37,2013-02-20 11:00:00,
2013-02-20 11:10:00,40.6,26.6,30.24,SE,127,1.0,5.0,57,0.00,CLR,CLR,0.00,WeatherDisplay:10.37,2013-02-20 11:10:00,
2013-02-20 11:20:00,40.6,26.6,30.24,ESE,106,1.0,6.0,57,0.00,CLR,CLR,0.00,WeatherDisplay:10.37,2013-02-20 11:20:00,
2013-02-20 11:25:00,40.6,26.2,30.24,ESE,116,2.0,7.0,56,0.00,CLR,CLR,0.00,WeatherDisplay:10.37,2013-02-20 11:25:00,
2013-02-20 11:30:00,40.6,25.7,30.24,ESE,109,2.0,6.0,55,0.00,CLR,CLR,0.00,WeatherDisplay:10.37,2013-02-20 11:30:00,
2013-02-20 11:40:00,40.5,24.2,30.24,ESE,107,5.0,8.0,52,0.00,CLR,CLR,0.00,WeatherDisplay:10.37,2013-02-20 11:40:00,
2013-02-20 11:50:00,40.5,23.7,30.24,ESE,105,2.0,8.0,51,0.00,CLR,CLR,0.00,WeatherDisplay:10.37,2013-02-20 11:50:00,
2013-02-20 11:55:00,40.3,23.1,30.24,ESE,115,3.0,8.0,50,0.00,CLR,CLR,0.00,WeatherDisplay:10.37,2013-02-20 11:55:00,
2013-02-20 12:00:00,40.3,22.6,30.24,ESE,115,1.0,9.0,49,0.00,CLR,CLR,0.00,WeatherDisplay:10.37,2013-02-20 12:00:00,
2013-02-20 12:05:00,40.3,23.1,30.24,SE,135,0.0,6.0,50,0.00,CLR,CLR,0.00,WeatherDisplay:10.37,2013-02-20 12:05:00,
2013-02-20 12:10:00,40.3,22.6,30.24,SE,133,3.0,8.0,49,0.00,CLR,CLR,0.00,WeatherDisplay:10.37,2013-02-20 12:10:00,
2013-02-20 12:15:00,40.3,22.6,30.24,ESE,117,3.0,6.0,49,0.00,CLR,CLR,0.00,WeatherDisplay:10.37,2013-02-20 12:15:00,
2013-02-20 12:20:00,40.2,22.0,30.27,ESE,102,6.0,6.0,48,0.00,CLR,CLR,0.00,WeatherDisplay:10.37,2013-02-20 12:20:00,
2013-02-20 12:25:00,39.9,20.3,30.27,ESE,105,6.0,10.0,45,0.00,CLR,CLR,0.00,WeatherDisplay:10.37,2013-02-20 12:25:00,
2013-02-20 12:30:00,39.7,20.1,30.27,ESE,112,3.0,8.0,45,0.00,CLR,CLR,0.00,WeatherDisplay:10.37,2013-02-20 12:30:00,
2013-02-20 12:40:00,39.6,19.4,30.27,East,101,5.0,8.0,44,0.00,CLR,CLR,0.00,WeatherDisplay:10.37,2013-02-20 12:40:00,
2013-02-20 12:45:00,39.4,18.7,30.27,East,99,6.0,8.0,43,0.00,CLR,CLR,0.00,WeatherDisplay:10.37,2013-02-20 12:45:00,
2013-02-20 12:50:00,39.4,18.7,30.27,ESE,117,3.0,8.0,43,0.00,CLR,CLR,0.00,WeatherDisplay:10.37,2013-02-20 12:50:00,
2013-02-20 13:00:00,39.4,18.7,30.27,ESE,105,1.0,9.0,43,0.00,CLR,CLR,0.00,WeatherDisplay:10.37,2013-02-20 13:00:00,
2013-02-20 13:05:00,39.4,18.7,30.27,ESE,116,2.0,8.0,43,0.00,CLR,CLR,0.00,WeatherDisplay:10.37,2013-02-20 13:05:00,
2013-02-20 13:10:00,39.4,18.7,30.27,ESE,113,3.0,8.0,43,0.00,CLR,CLR,0.00,WeatherDisplay:10.37,2013-02-20 13:10:00,
2013-02-20 13:20:00,39.4,18.7,30.27,ESE,113,2.0,6.0,43,0.00,CLR,CLR,0.00,WeatherDisplay:10.37,2013-02-20 13:20:00,
2013-02-20 13:25:00,39.4,18.7,30.27,ESE,115,3.0,6.0,43,0.00,CLR,CLR,0.00,WeatherDisplay:10.37,2013-02-20 13:25:00,
2013-02-20 13:30:00,39.4,18.7,30.27,ESE,119,1.0,6.0,43,0.00,CLR,CLR,0.00,WeatherDisplay:10.37,2013-02-20 13:30:00,
2013-02-20 13:40:00,39.4,18.7,30.27,SE,138,2.0,6.0,43,0.00,CLR,CLR,0.00,WeatherDisplay:10.37,2013-02-20 13:40:00,
2013-02-20 13:50:00,39.4,18.7,30.27,ESE,114,5.0,7.0,43,0.00,CLR,CLR,0.00,WeatherDisplay:10.37,2013-02-20 13:50:00,
2013-02-20 14:00:00,39.4,18.2,30.27,ESE,115,1.0,7.0,42,0.00,CLR,CLR,0.00,WeatherDisplay:10.37,2013-02-20 14:00:00,
2013-02-20 14:05:00,39.4,18.2,30.27,ESE,109,2.0,5.0,42,0.00,CLR,CLR,0.00,WeatherDisplay:10.37,2013-02-20 14:05:00,
2013-02-20 14:10:00,39.2,18.0,30.27,East,97,3.0,6.0,42,0.00,CLR,CLR,0.00,WeatherDisplay:10.37,2013-02-20 14:10:00,
2013-02-20 14:20:00,39.2,18.0,30.27,SE,125,2.0,6.0,42,0.00,CLR,CLR,0.00,WeatherDisplay:10.37,2013-02-20 14:20:00,
2013-02-20 14:25:00,39.2,18.0,30.27,ESE,113,3.0,8.0,42,0.00,CLR,CLR,0.00,WeatherDisplay:10.37,2013-02-20 14:25:00,
2013-02-20 14:30:00,39.0,17.8,30.27,East,101,3.0,6.0,42,0.00,CLR,CLR,0.00,WeatherDisplay:10.37,2013-02-20 14:30:00,
2013-02-20 14:40:00,39.2,17.4,30.27,ESE,118,3.0,6.0,41,0.00,CLR,CLR,0.00,WeatherDisplay:10.37,2013-02-20 14:40:00,
2013-02-20 14:50:00,39.2,17.4,30.27,ESE,109,3.0,8.0,41,0.00,CLR,CLR,0.00,WeatherDisplay:10.37,2013-02-20 14:50:00,
2013-02-20 15:00:00,38.8,17.1,30.27,SE,132,0.0,6.0,41,0.00,CLR,CLR,0.00,WeatherDisplay:10.37,2013-02-20 15:00:00,
2013-02-20 15:05:00,38.8,17.1,30.27,ESE,123,1.0,6.0,41,0.00,CLR,CLR,0.00,WeatherDisplay:10.37,2013-02-20 15:05:00,
2013-02-20 15:10:00,38.8,17.1,30.27,ESE,112,5.0,8.0,41,0.00,CLR,CLR,0.00,WeatherDisplay:10.37,2013-02-20 15:10:00,
2013-02-20 15:20:00,38.8,17.1,30.27,ESE,121,3.0,6.0,41,0.00,CLR,CLR,0.00,WeatherDisplay:10.37,2013-02-20 15:20:00,
2013-02-20 15:25:00,38.8,17.1,30.27,SE,136,3.0,6.0,41,0.00,CLR,CLR,0.00,WeatherDisplay:10.37,2013-02-20 15:25:00,
2013-02-20 15:30:00,38.8,16.5,30.27,ESE,113,5.0,9.0,40,0.00,CLR,CLR,0.00,WeatherDisplay:10.37,2013-02-20 15:30:00,
2013-02-20 15:35:00,38.7,16.4,30.27,ESE,107,5.0,8.0,40,0.00,CLR,CLR,0.00,WeatherDisplay:10.37,2013-02-20 15:35:00,
2013-02-20 15:40:00,38.7,16.4,30.27,ESE,112,6.0,9.0,40,0.00,CLR,CLR,0.00,WeatherDisplay:10.37,2013-02-20 15:40:00,
2013-02-20 15:50:00,38.7,16.4,30.27,ESE,103,5.0,8.0,40,0.00,CLR,CLR,0.00,WeatherDisplay:10.37,2013-02-20 15:50:00,
2013-02-20 16:00:00,38.7,15.8,30.27,East,100,6.0,8.0,39,0.00,CLR,CLR,0.00,WeatherDisplay:10.37,2013-02-20 16:00:00,
2013-02-20 16:05:00,38.7,15.8,30.27,ESE,114,5.0,8.0,39,0.00,CLR,CLR,0.00,WeatherDisplay:10.37,2013-02-20 16:05:00,
2013-02-20 16:10:00,38.8,16.0,30.27,ESE,114,0.0,6.0,39,0.00,CLR,CLR,0.00,WeatherDisplay:10.37,2013-02-20 16:10:00,
2013-02-20 16:20:00,38.7,15.8,30.27,SE,145,3.0,6.0,39,0.00,CLR,CLR,0.00,WeatherDisplay:10.37,2013-02-20 16:20:00,
2013-02-20 16:30:00,38.5,15.6,30.27,ESE,116,1.0,8.0,39,0.00,CLR,CLR,0.00,WeatherDisplay:10.37,2013-02-20 16:30:00,
2013-02-20 16:40:00,38.3,15.5,30.27,ESE,105,1.0,6.0,39,0.00,CLR,CLR,0.00,WeatherDisplay:10.37,2013-02-20 16:40:00,
2013-02-20 16:50:00,38.1,15.3,30.27,SSE,160,3.0,8.0,39,0.00,CLR,CLR,0.00,WeatherDisplay:10.37,2013-02-20 16:50:00,
2013-02-20 16:55:00,37.9,15.2,30.27,SE,136,2.0,7.0,39,0.00,CLR,CLR,0.00,WeatherDisplay:10.37,2013-02-20 16:55:00,
2013-02-20 17:00:00,37.9,15.1,30.27,SE,143,1.0,8.0,39,0.00,CLR,CLR,0.00,WeatherDisplay:10.37,2013-02-20 17:00:00,
2013-02-20 17:05:00,37.7,14.9,30.27,SSE,147,0.0,6.0,39,0.00,CLR,CLR,0.00,WeatherDisplay:10.37,2013-02-20 17:05:00,
2013-02-20 17:10:00,37.4,14.7,30.27,SE,136,3.0,6.0,39,0.00,CLR,CLR,0.00,WeatherDisplay:10.37,2013-02-20 17:10:00,
2013-02-20 17:15:00,37.3,15.1,30.27,SE,134,3.0,0.0,40,0.00,CLR,CLR,0.00,WeatherDisplay:10.37,2013-02-20 17:15:00,
2013-02-20 17:20:00,37.0,14.9,30.27,SE,134,3.0,0.0,40,0.00,CLR,CLR,0.00,WeatherDisplay:10.37,2013-02-20 17:20:00,
2013-02-20 17:30:00,36.7,14.6,30.27,SE,134,3.0,0.0,40,0.00,CLR,CLR,0.00,WeatherDisplay:10.37,2013-02-20 17:30:00,
2013-02-20 17:40:00,36.1,14.1,30.27,SE,134,3.0,0.0,40,0.00,CLR,CLR,0.00,WeatherDisplay:10.37,2013-02-20 17:40:00,
2013-02-20 17:50:00,35.6,13.6,30.27,SE,134,3.0,0.0,40,0.00,CLR,CLR,0.00,WeatherDisplay:10.37,2013-02-20 17:50:00,
2013-02-20 18:00:00,35.1,13.1,30.27,SE,130,3.0,6.0,40,0.00,CLR,CLR,0.00,WeatherDisplay:10.37,2013-02-20 18:00:00,
2013-02-20 18:05:00,34.9,13.0,30.27,ESE,118,0.0,4.0,40,0.00,CLR,CLR,0.00,WeatherDisplay:10.37,2013-02-20 18:05:00,
2013-02-20 18:10:00,34.9,13.5,30.27,ESE,120,3.0,6.0,41,0.00,CLR,CLR,0.00,WeatherDisplay:10.37,2013-02-20 18:10:00,
2013-02-20 18:20:00,34.7,13.4,30.27,SE,131,1.0,6.0,41,0.00,CLR,CLR,0.00,WeatherDisplay:10.37,2013-02-20 18:20:00,
2013-02-20 18:30:00,34.5,13.2,30.27,SE,126,1.0,8.0,41,0.00,CLR,CLR,0.00,WeatherDisplay:10.37,2013-02-20 18:30:00,
2013-02-20 18:35:00,34.4,13.1,30.27,ESE,112,1.0,4.0,41,0.00,CLR,CLR,0.00,WeatherDisplay:10.37,2013-02-20 18:35:00,
2013-02-20 18:40:00,34.3,13.0,30.27,ESE,115,2.0,6.0,41,0.00,CLR,CLR,0.00,WeatherDisplay:10.37,2013-02-20 18:40:00,
2013-02-20 18:50:00,34.3,13.0,30.27,ESE,109,2.0,5.0,41,0.00,CLR,CLR,0.00,WeatherDisplay:10.37,2013-02-20 18:50:00,
2013-02-20 19:00:00,34.2,12.9,30.27,ESE,114,0.0,0.0,41,0.00,CLR,CLR,0.00,WeatherDisplay:10.37,2013-02-20 19:00:00,
2013-02-20 19:05:00,34.2,12.9,30.27,ESE,109,0.0,0.0,41,0.00,CLR,CLR,0.00,WeatherDisplay:10.37,2013-02-20 19:05:00,
2013-02-20 19:10:00,34.1,12.8,30.27,East,97,0.0,6.0,41,0.00,CLR,CLR,0.00,WeatherDisplay:10.37,2013-02-20 19:10:00,
2013-02-20 19:20:00,34.0,12.7,30.27,SE,124,2.0,5.0,41,0.00,CLR,CLR,0.00,WeatherDisplay:10.37,2013-02-20 19:20:00,
2013-02-20 19:30:00,33.8,12.6,30.27,ESE,122,0.0,4.0,41,0.00,CLR,CLR,0.00,WeatherDisplay:10.37,2013-02-20 19:30:00,
2013-02-20 19:35:00,33.6,12.9,30.27,ESE,107,5.0,8.0,42,0.00,CLR,CLR,0.00,WeatherDisplay:10.37,2013-02-20 19:35:00,
2013-02-20 19:40:00,33.6,12.4,30.27,ESE,112,0.0,4.0,41,0.00,CLR,CLR,0.00,WeatherDisplay:10.37,2013-02-20 19:40:00,
2013-02-20 19:50:00,33.2,12.0,30.27,East,97,0.0,3.0,41,0.00,CLR,CLR,0.00,WeatherDisplay:10.37,2013-02-20 19:50:00,
2013-02-20 19:55:00,32.9,11.7,30.27,ESE,110,0.0,3.0,41,0.00,CLR,CLR,0.00,WeatherDisplay:10.37,2013-02-20 19:55:00,
2013-02-20 20:00:00,32.5,11.4,30.27,ESE,108,0.0,0.0,41,0.00,CLR,CLR,0.00,WeatherDisplay:10.37,2013-02-20 20:00:00,
2013-02-20 20:05:00,32.1,11.0,30.27,ESE,107,0.0,0.0,41,0.00,CLR,CLR,0.00,WeatherDisplay:10.37,2013-02-20 20:05:00,
2013-02-20 20:10:00,31.5,10.4,30.27,ESE,107,0.0,0.0,41,0.00,CLR,CLR,0.00,WeatherDisplay:10.37,2013-02-20 20:10:00,
2013-02-20 20:15:00,31.1,10.1,30.27,ESE,108,0.0,0.0,41,0.00,CLR,CLR,0.00,WeatherDisplay:10.37,2013-02-20 20:15:00,
2013-02-20 20:20:00,30.5,9.6,30.27,ESE,107,0.0,0.0,41,0.00,CLR,CLR,0.00,WeatherDisplay:10.37,2013-02-20 20:20:00,
2013-02-20 20:25:00,30.0,9.1,30.27,ESE,107,0.0,0.0,41,0.00,CLR,CLR,0.00,WeatherDisplay:10.37,2013-02-20 20:25:00,
2013-02-20 20:32:00,29.7,8.8,30.27,ESE,107,0.0,0.0,41,0.00,CLR,CLR,0.00,WeatherDisplay:10.37,2013-02-20 20:32:00,
2013-02-20 20:40:00,28.8,8.0,30.27,ESE,105,3.0,4.0,41,0.00,CLR,CLR,0.00,WeatherDisplay:10.37,2013-02-20 20:40:00,
2013-02-20 20:50:00,28.4,8.2,30.27,East,99,3.0,4.0,42,0.00,CLR,CLR,0.00,WeatherDisplay:10.37,2013-02-20 20:50:00,
2013-02-20 21:00:00,28.6,8.9,30.27,ESE,105,2.0,4.0,43,0.00,CLR,CLR,0.00,WeatherDisplay:10.37,2013-02-20 21:00:00,
2013-02-20 21:05:00,28.4,8.7,30.27,ESE,119,0.0,0.0,43,0.00,CLR,CLR,0.00,WeatherDisplay:10.37,2013-02-20 21:05:00,
2013-02-20 21:10:00,28.0,8.4,30.27,ESE,118,0.0,0.0,43,0.00,CLR,CLR,0.00,WeatherDisplay:10.37,2013-02-20 21:10:00,
2013-02-20 21:20:00,27.5,7.9,30.27,ESE,111,3.0,4.0,43,0.00,CLR,CLR,0.00,WeatherDisplay:10.37,2013-02-20 21:20:00,
2013-02-20 21:25:00,27.3,8.2,30.27,ESE,104,3.0,5.0,44,0.00,CLR,CLR,0.00,WeatherDisplay:10.37,2013-02-20 21:25:00,
2013-02-20 21:30:00,27.3,8.2,30.27,East,100,2.0,4.0,44,0.00,CLR,CLR,0.00,WeatherDisplay:10.37,2013-02-20 21:30:00,
2013-02-20 21:40:00,27.3,8.7,30.27,East,87,3.0,4.0,45,0.00,CLR,CLR,0.00,WeatherDisplay:10.37,2013-02-20 21:40:00,
2013-02-20 21:50:00,27.9,9.7,30.27,East,96,2.0,4.0,46,0.00,CLR,CLR,0.00,WeatherDisplay:10.37,2013-02-20 21:50:00,
2013-02-20 22:00:00,27.2,8.6,30.27,East,99,0.0,4.0,45,0.00,CLR,CLR,0.00,WeatherDisplay:10.37,2013-02-20 22:00:00,
2013-02-20 22:05:00,27.0,8.4,30.29,East,100,3.0,4.0,45,0.00,CLR,CLR,0.00,WeatherDisplay:10.37,2013-02-20 22:05:00,
2013-02-20 22:10:00,27.0,8.4,30.30,ESE,104,2.0,3.0,45,0.00,CLR,CLR,0.00,WeatherDisplay:10.37,2013-02-20 22:10:00,
2013-02-20 22:15:00,27.0,8.9,30.30,ESE,102,2.0,4.0,46,0.00,CLR,CLR,0.00,WeatherDisplay:10.37,2013-02-20 22:15:00,
2013-02-20 22:25:00,27.1,9.5,30.30,East,89,3.0,5.0,47,0.00,CLR,CLR,0.00,WeatherDisplay:10.37,2013-02-20 22:25:00,
2013-02-20 22:30:00,27.0,9.4,30.30,East,91,2.0,4.0,47,0.00,CLR,CLR,0.00,WeatherDisplay:10.37,2013-02-20 22:30:00,
2013-02-20 22:40:00,26.6,9.1,30.30,ESE,105,2.0,4.0,47,0.00,CLR,CLR,0.00,WeatherDisplay:10.37,2013-02-20 22:40:00,
2013-02-20 22:45:00,26.6,9.5,30.30,East,99,3.0,5.0,48,0.00,CLR,CLR,0.00,WeatherDisplay:10.37,2013-02-20 22:45:00,
2013-02-20 22:50:00,26.8,10.1,30.27,East,100,3.0,5.0,49,0.00,CLR,CLR,0.00,WeatherDisplay:10.37,2013-02-20 22:50:00,
2013-02-20 22:55:00,26.8,9.7,30.27,East,99,3.0,4.0,48,0.00,CLR,CLR,0.00,WeatherDisplay:10.37,2013-02-20 22:55:00,
2013-02-20 23:00:00,26.8,9.7,30.27,East,91,2.0,5.0,48,0.00,CLR,CLR,0.00,WeatherDisplay:10.37,2013-02-20 23:00:00,
2013-02-20 23:05:00,26.8,10.1,30.27,East,79,1.0,5.0,49,0.00,CLR,CLR,0.00,WeatherDisplay:10.37,2013-02-20 23:05:00,
2013-02-20 23:10:00,26.6,10.0,30.27,ENE,70,2.0,4.0,49,0.00,CLR,CLR,0.00,WeatherDisplay:10.37,2013-02-20 23:10:00,
2013-02-20 23:15:00,26.8,10.6,30.27,East,85,3.0,4.0,50,0.00,CLR,CLR,0.00,WeatherDisplay:10.37,2013-02-20 23:15:00,
2013-02-20 23:20:00,27.1,11.4,30.27,East,89,3.0,6.0,51,0.00,CLR,CLR,0.00,WeatherDisplay:10.37,2013-02-20 23:20:00,
2013-02-20 23:25:00,27.5,11.7,30.27,East,98,3.0,6.0,51,0.00,CLR,CLR,0.00,WeatherDisplay:10.37,2013-02-20 23:25:00,
2013-02-20 23:30:00,27.9,12.1,30.27,East,96,3.0,5.0,51,0.00,CLR,CLR,0.00,WeatherDisplay:10.37,2013-02-20 23:30:00,
2013-02-20 23:40:00,28.2,12.8,30.27,East,92,3.0,6.0,52,0.00,CLR,CLR,0.00,WeatherDisplay:10.37,2013-02-20 23:40:00,
2013-02-20 23:45:00,28.4,13.0,30.27,East,96,2.0,6.0,52,0.00,CLR,CLR,0.00,WeatherDisplay:10.37,2013-02-20 23:45:00,
2013-02-20 23:50:00,28.0,12.2,30.30,ESE,108,0.0,0.0,51,0.00,CLR,CLR,0.00,WeatherDisplay:10.37,2013-02-20 23:50:00,